Regional Weather Roundup
Issued by NWS

Home | Current Version | Previous Version | Graphics & Text | Print | Product List | Glossary On
Versions: 1 2 3 4 5 6 7 8 9 10 11 12 13 14 15 16 17 18 19 20 21 22 23 24 25 26 27 28 29 30 31 32 33 34 35 36 37 38 39 40 41 42 43 44 45 46 47 48 49 50
000
ASUS45 KCYS 261710
RWRWY

WYOMING REGIONAL WEATHER ROUNDUP
NATIONAL WEATHER SERVICE CHEYENNE WY
1100 AM MDT THU MAR 26 2015

NOTE:  "FAIR" INDICATES FEW OR NO CLOUDS BELOW 12,000 FEET
WITH NO SIGNIFICANT WEATHER AND/OR OBSTRUCTIONS TO VISIBILITY.

WYZ001-261800-
YELLOWSTONE NATIONAL PARK

CITY           SKY/WX    TMP DP  RH WIND       PRES   REMARKS
LK YELLOWSTONE   N/A     33  26  75 CALM      30.37S
W YELLOWSTONE  NOT AVBL

$$
WYZ002>013-054>058-071-098>099-261800-
NORTHERN WYOMING

CITY           SKY/WX    TMP DP  RH WIND       PRES   REMARKS
JACKSON        SUNNY     32  21  64 CALM      30.38F
CODY           FAIR      54  27  35 NW9G20    30.19S
GREYBULL       CLOUDY    48  24  39 SE3       30.20S
WORLAND        CLOUDY    48  26  42 SW5       30.20S
SHERIDAN       CLOUDY    50  34  54 NW24G33   30.17S
BUFFALO        CLOUDY    46  33  60 NW21G28   30.17S
GILLETTE       CLOUDY    43  34  70 NW17      30.15S
HULETT         CLOUDY    45  30  57 NW16G24   30.14R
NEWCASTLE      FAIR      43  32  65 NW21G28   30.15S

$$
WYZ014>020-022>026-101>103-261800-
CENTRAL WYOMING

CITY           SKY/WX    TMP DP  RH WIND       PRES   REMARKS
BIG PINEY      FAIR      47  22  37 N18G26    30.33S
PINEDALE       FAIR      41  23  48 W23G33    30.30F
DUBOIS         FAIR      43  23  45 NW17G31   30.27S
LANDER         FAIR      52  24  33 SE10      30.20S
RIVERTON       FAIR      50  23  34 VRB7      30.21R
CASPER         PTSUNNY   51  23  33 W20       30.20R
DOUGLAS        CLOUDY    47  22  37 NW13      30.19S

$$
WYZ021-027>030-104>119-261800-
SOUTHERN WYOMING

CITY           SKY/WX    TMP DP  RH WIND       PRES   REMARKS
EVANSTON       FAIR      41  24  51 CALM      30.42R
KEMMERER       FAIR      37  28  70 W18       30.40S WCI  27
FORT BRIDGER   FAIR      45  26  46 W20       30.42S
ROCK SPRINGS   FAIR      42  24  49 W24G31    30.33F
DIXON          FAIR      42  22  44 SW9       30.38S
RAWLINS        FAIR      40  21  46 W22G31    30.28S WCI  30
SARATOGA       FAIR      41  19  42 W18G28    30.30F
LARAMIE        PTSUNNY   43  18  36 N9        30.19F
CHEYENNE       CLOUDY    47  18  31 NW23G33   30.18F
TORRINGTON     CLOUDY    46  25  43 W10       30.17S
PINE BLUFFS    PTSUNNY   46  21  36 NW25G32   30.18S

$$


USA.gov is the U.S. government's official web portal to all federal, state and local government web resources and services.